Main page
METAR-TAF:

METAR-TAF

Airports :

Oil platform

Troll A, Norway

latitude: 60-38-42N, longitude: 3-43-29E, elevation: 20 m

Current weather observation

The report was made 39 minutes ago, at 21:20 UTC
Wind 24 kt from the South/Southeast
Temperature 9°C
Humidity 93%
Pressure 997 hPa
Visibility: 2200 m
rain

METAR: ENQA 252120Z AUTO 16024KT 2200NDV RA OVC004/// 09/08 Q0997 W13/S3

Time: 23:59 (21:59 UTC)


TAF: missing

Weather observations and forecasts of more than 4000 airports (METAR and TAF reports).

The available stations are represented by yellow and red dots on the map.

Hover mouse over dot to see the name of the station.

Then click to see weather observations and forecasts.

To change the map : click on the green buttons with a black cross to zoom in, on the green button with a dash to zoom out, or on the green arrows for adjacent maps.


METAR-TAF: